Simultaneous Nadir Overpasses (SNOs) Predictions

Prediction of SNOs between GOES-17 and LANDSAT-8 Satellite Orbit:

Table of predicted SNOs for the next 14.0 days since TLE Epoch: 6/13/2025
Index Date Time (GOES-17) GOES-17 Lat,Lon LANDSAT-8 Lat,Lon Distance(km) Time Diff (sec)
1 06/15/2025 17:00:08 0.01,-104.44 -0.57,-101.80 299.96 80
2 06/16/2025 05:21:31 -0.01,-104.38 -0.57,-106.99 296.86 80
3 06/18/2025 05:06:42 -0.01,-104.38 0.06,-104.03 39.09 80
4 06/20/2025 04:54:32 -0.01,-104.38 0.71,-101.08 375.12 80
5 06/20/2025 17:15:47 0.01,-104.43 0.37,-106.24 205.16 80
6 06/22/2025 17:06:16 0.00,-104.43 -0.23,-103.28 130.52 80
7 06/23/2025 05:27:40 -0.00,-104.38 -0.89,-108.46 465.55 80
8 06/24/2025 16:54:05 -0.00,-104.42 -0.85,-100.32 465.99 80
9 06/25/2025 05:15:30 0.00,-104.37 -0.21,-105.52 130.20 80
10 06/27/2025 05:00:38 0.01,-104.36 0.36,-102.55 205.63 80
11 06/27/2025 17:21:54 -0.01,-104.41 0.71,-107.71 375.45 80
